Terug naar catalogus

STARLINK-36893

ActiefCommunicatieSSO
NORAD 68112·PAYLOAD·🇺🇸 United States

Gelanceerd Mar 8, 2026 vanaf Vandenberg Space Force Base

Loading…

Volgende Passages (komende 24 uur)

TLE

VersSource: CelesTrak SupGP

Epoch: Sep 15, 2026, 03:17 UTC

1 68112C 26044M   26258.13729167  .00013049  00000+0  40520-3 0  2581
2 68112  97.2851 217.1550 0001753  91.6206 328.7479 15.33422771    19

Volg STARLINK-36893 in realtime met AllMySat

Download on the App Store